TFL69C EHEH-GCTS

Flight info

Callsign TFL69C
Flight time 4h 24m
Altitude 33000
Route WOODY5J WOODY N872 MEDIL UN872 GODIX/N0453F350 UN872 ERIGA UN741 AZFIC DCT LOTEE DCT PINEK DCT ASMOV DCT BEXAL UN866 KUBIL/N0451F370 UN866 KONBA KONBA2Z
Aircraft A320/M-SDE3FGHIRWY/LB1

Departure

Time 2026-04-27 13:13
Airport Eindhoven Airport (EHEH)

Arrival

Time 2026-04-27 17:38
Airport Tenerife Sur Airport (GCTS)
Time Latitude Longitude Altitude Speed Heading
2026-04-27 12:43 51.45648 5.38822 75 ft 0 kts 125°
2026-04-27 13:01 51.45654 5.38810 67 ft 3 kts 124°
2026-04-27 13:01 51.45665 5.38783 69 ft 3 kts 119°
2026-04-27 13:01 51.45674 5.38754 66 ft 3 kts 109°
2026-04-27 13:02 51.45679 5.38724 66 ft 3 kts 83°
2026-04-27 13:02 51.45675 5.38702 66 ft 1 kts 37°
2026-04-27 13:02 51.45673 5.38700 66 ft 0 kts 35°
2026-04-27 13:05 51.45674 5.38701 66 ft 1 kts 35°
2026-04-27 13:05 51.45681 5.38709 66 ft 2 kts 35°
2026-04-27 13:05 51.45695 5.38725 72 ft 3 kts 35°
2026-04-27 13:06 51.45717 5.38749 74 ft 4 kts 35°
2026-04-27 13:06 51.45746 5.38781 72 ft 7 kts 32°
2026-04-27 13:06 51.45800 5.38760 68 ft 9 kts 312°
2026-04-27 13:06 51.45846 5.38657 72 ft 14 kts 305°
2026-04-27 13:07 51.45904 5.38522 71 ft 14 kts 304°
2026-04-27 13:07 51.45966 5.38388 69 ft 16 kts 306°
2026-04-27 13:07 51.45960 5.38234 71 ft 17 kts 219°
2026-04-27 13:07 51.45860 5.38122 75 ft 18 kts 214°
2026-04-27 13:08 51.45752 5.38001 75 ft 19 kts 215°
2026-04-27 13:08 51.45637 5.37872 67 ft 21 kts 215°
2026-04-27 13:08 51.45516 5.37738 72 ft 22 kts 214°
2026-04-27 13:08 51.45386 5.37601 69 ft 23 kts 213°
2026-04-27 13:09 51.45301 5.37501 71 ft 23 kts 222°
2026-04-27 13:09 51.45121 5.37292 72 ft 25 kts 215°
2026-04-27 13:09 51.45027 5.37186 73 ft 25 kts 215°
2026-04-27 13:09 51.44882 5.37024 75 ft 26 kts 215°
2026-04-27 13:10 51.44732 5.36857 73 ft 27 kts 215°
2026-04-27 13:10 51.44579 5.36683 69 ft 27 kts 215°
2026-04-27 13:10 51.44422 5.36504 74 ft 28 kts 214°
2026-04-27 13:10 51.44297 5.36367 72 ft 21 kts 214°
2026-04-27 13:11 51.44173 5.36230 69 ft 22 kts 215°
2026-04-27 13:11 51.44048 5.36090 72 ft 19 kts 213°
2026-04-27 13:11 51.43951 5.36166 67 ft 18 kts 119°
2026-04-27 13:11 51.43991 5.36304 74 ft 0 kts 34°
2026-04-27 13:12 51.43997 5.36310 67 ft 7 kts 35°
2026-04-27 13:12 51.44239 5.36585 70 ft 77 kts 34°
2026-04-27 13:12 51.44836 5.37255 73 ft 129 kts 35°
2026-04-27 13:13 51.45691 5.38201 84 ft 167 kts 34°
2026-04-27 13:13 51.46665 5.39299 548 ft 166 kts 34°
2026-04-27 13:13 51.47592 5.40386 1123 ft 165 kts 36°
2026-04-27 13:13 51.48509 5.41490 1573 ft 165 kts 35°
2026-04-27 13:14 51.49446 5.42528 2038 ft 162 kts 31°
2026-04-27 13:14 51.50431 5.43424 2354 ft 168 kts 24°
2026-04-27 13:14 51.51559 5.44059 2593 ft 175 kts
2026-04-27 13:14 51.52771 5.43941 2859 ft 183 kts 335°
2026-04-27 13:15 51.53827 5.42695 3034 ft 200 kts 305°
2026-04-27 13:15 51.54373 5.40554 3228 ft 219 kts 273°
2026-04-27 13:15 51.54112 5.38109 3717 ft 227 kts 251°
2026-04-27 13:15 51.53607 5.35681 4361 ft 231 kts 252°
2026-04-27 13:16 51.53099 5.33224 5046 ft 233 kts 252°
2026-04-27 13:16 51.52591 5.30743 5724 ft 235 kts 252°
2026-04-27 13:16 51.52081 5.28237 6401 ft 238 kts 252°
2026-04-27 13:16 51.51564 5.25697 7065 ft 240 kts 252°
2026-04-27 13:17 51.51042 5.23134 7731 ft 243 kts 252°
2026-04-27 13:17 51.50582 5.20528 8373 ft 245 kts 262°
2026-04-27 13:17 51.50555 5.17766 8845 ft 257 kts 278°
2026-04-27 13:17 51.51001 5.14873 9091 ft 276 kts 285°
2026-04-27 13:18 51.51531 5.11858 9641 ft 283 kts 285°
2026-04-27 13:18 51.52067 5.08789 10155 ft 293 kts 285°
2026-04-27 13:18 51.52630 5.05519 10287 ft 315 kts 285°
2026-04-27 13:18 51.53223 5.02022 10419 ft 335 kts 285°
2026-04-27 13:19 51.53844 4.98325 10747 ft 347 kts 285°
2026-04-27 13:19 51.54475 4.94560 11294 ft 351 kts 285°
2026-04-27 13:19 51.55114 4.90760 11865 ft 355 kts 285°
2026-04-27 13:19 51.55661 4.86895 12421 ft 358 kts 276°
2026-04-27 13:20 51.55666 4.82891 12981 ft 361 kts 262°
2026-04-27 13:20 51.55173 4.78917 13544 ft 363 kts 257°
2026-04-27 13:20 51.54627 4.74930 14101 ft 366 kts 258°
2026-04-27 13:20 51.54081 4.70918 14637 ft 369 kts 258°
2026-04-27 13:21 51.53531 4.66864 15151 ft 372 kts 258°
2026-04-27 13:21 51.52976 4.62796 15648 ft 375 kts 258°
2026-04-27 13:21 51.52413 4.58703 16141 ft 378 kts 257°
2026-04-27 13:21 51.51840 4.54549 16644 ft 381 kts 257°
2026-04-27 13:22 51.51096 4.50476 17131 ft 384 kts 248°
2026-04-27 13:22 51.49826 4.46702 17620 ft 387 kts 235°
2026-04-27 13:22 51.48060 4.43412 18108 ft 390 kts 223°
2026-04-27 13:22 51.45883 4.40788 18594 ft 394 kts 211°
2026-04-27 13:23 51.43415 4.38820 19092 ft 397 kts 205°
2026-04-27 13:23 51.40905 4.36923 19587 ft 400 kts 206°
2026-04-27 13:23 51.38384 4.35011 20071 ft 403 kts 206°
2026-04-27 13:23 51.35841 4.33076 20535 ft 406 kts 206°
2026-04-27 13:24 51.33280 4.31126 20970 ft 408 kts 206°
2026-04-27 13:24 51.30940 4.29342 21347 ft 411 kts 206°
2026-04-27 13:24 51.28351 4.27368 21744 ft 413 kts 206°
2026-04-27 13:24 51.25749 4.25388 22136 ft 416 kts 206°
2026-04-27 13:25 51.23129 4.23402 22502 ft 418 kts 206°
2026-04-27 13:25 51.20527 4.21435 22861 ft 420 kts 206°
2026-04-27 13:25 51.17845 4.19413 23220 ft 423 kts 206°
2026-04-27 13:25 51.15120 4.17629 23562 ft 425 kts 199°
2026-04-27 13:26 51.12350 4.16112 23895 ft 427 kts 199°
2026-04-27 13:26 51.09531 4.14566 24221 ft 429 kts 199°
2026-04-27 13:26 51.06702 4.13015 24541 ft 431 kts 199°
2026-04-27 13:26 51.03858 4.11457 24850 ft 433 kts 199°
2026-04-27 13:27 51.01002 4.09894 25155 ft 435 kts 199°
2026-04-27 13:27 50.98133 4.08326 25450 ft 437 kts 199°
2026-04-27 13:27 50.95248 4.06754 25749 ft 439 kts 199°
2026-04-27 13:27 50.92351 4.05180 26038 ft 441 kts 199°
2026-04-27 13:28 50.89440 4.03600 26332 ft 443 kts 199°
2026-04-27 13:28 50.86523 4.01983 26612 ft 445 kts 200°
2026-04-27 13:28 50.83635 4.00233 26891 ft 447 kts 202°
2026-04-27 13:28 50.80741 3.98364 27163 ft 449 kts 203°
2026-04-27 13:29 50.77861 3.96445 27425 ft 451 kts 203°
2026-04-27 13:29 50.74968 3.94508 27684 ft 452 kts 203°
2026-04-27 13:29 50.72057 3.92583 27944 ft 454 kts 203°
2026-04-27 13:29 50.69129 3.90685 28190 ft 456 kts 202°
2026-04-27 13:30 50.66178 3.88806 28434 ft 458 kts 202°
2026-04-27 13:30 50.63219 3.86940 28669 ft 459 kts 202°
2026-04-27 13:30 50.60247 3.85072 28901 ft 461 kts 202°
2026-04-27 13:30 50.57268 3.83200 29119 ft 462 kts 202°
2026-04-27 13:31 50.54290 3.81274 29403 ft 462 kts 203°
2026-04-27 13:31 50.51343 3.79285 29716 ft 461 kts 204°
2026-04-27 13:31 50.48409 3.77252 30023 ft 460 kts 204°
2026-04-27 13:31 50.45494 3.75217 30330 ft 460 kts 204°
2026-04-27 13:32 50.42560 3.73176 30632 ft 459 kts 204°
2026-04-27 13:32 50.39644 3.71170 30927 ft 458 kts 204°
2026-04-27 13:32 50.36714 3.69175 31220 ft 458 kts 204°
2026-04-27 13:32 50.33796 3.67204 31506 ft 457 kts 204°
2026-04-27 13:33 50.30868 3.65237 31791 ft 457 kts 204°
2026-04-27 13:33 50.27949 3.63274 32067 ft 457 kts 204°
2026-04-27 13:33 50.25035 3.61307 32339 ft 456 kts 204°
2026-04-27 13:33 50.22131 3.59341 32614 ft 456 kts 204°
2026-04-27 13:34 50.19218 3.57374 32887 ft 455 kts 204°
2026-04-27 13:34 50.16307 3.55418 32988 ft 456 kts 204°
2026-04-27 13:34 50.10465 3.51505 33009 ft 457 kts 204°
2026-04-27 13:35 50.04619 3.47607 33009 ft 457 kts 204°
2026-04-27 13:35 49.98766 3.43706 33008 ft 458 kts 204°
2026-04-27 13:36 49.92911 3.39811 33010 ft 457 kts 204°
2026-04-27 13:36 49.87058 3.35927 33012 ft 458 kts 204°
2026-04-27 13:37 49.81204 3.32052 33016 ft 458 kts 204°
2026-04-27 13:37 49.75345 3.28178 33020 ft 458 kts 204°
2026-04-27 13:38 49.69485 3.24313 33022 ft 458 kts 203°
2026-04-27 13:38 49.63616 3.20459 33025 ft 458 kts 203°
2026-04-27 13:39 49.57792 3.16645 33027 ft 458 kts 203°
2026-04-27 13:39 49.52019 3.12522 33027 ft 457 kts 212°
2026-04-27 13:40 49.47251 3.06147 33023 ft 456 kts 232°
2026-04-27 13:40 49.43899 2.97906 33023 ft 455 kts 241°
2026-04-27 13:41 49.40758 2.89450 33023 ft 456 kts 240°
2026-04-27 13:41 49.37595 2.81026 33024 ft 456 kts 240°
2026-04-27 13:42 49.34429 2.72598 33025 ft 456 kts 240°
2026-04-27 13:42 49.31356 2.64085 33028 ft 456 kts 242°
2026-04-27 13:43 49.28383 2.55492 33029 ft 456 kts 242°
2026-04-27 13:43 49.25412 2.46921 33029 ft 456 kts 242°
2026-04-27 13:44 49.22384 2.38363 33027 ft 456 kts 242°
2026-04-27 13:44 49.19339 2.29851 33029 ft 457 kts 241°
2026-04-27 13:45 49.16232 2.21388 33028 ft 457 kts 240°
2026-04-27 13:45 49.13087 2.12965 33029 ft 457 kts 240°
2026-04-27 13:46 49.09968 2.04595 33028 ft 456 kts 242°
2026-04-27 13:46 49.07278 1.95823 33029 ft 456 kts 246°
2026-04-27 13:47 49.04642 1.87023 33029 ft 456 kts 245°
2026-04-27 13:47 49.01993 1.78248 33027 ft 456 kts 245°
2026-04-27 13:48 48.99328 1.69475 33025 ft 456 kts 245°
2026-04-27 13:48 48.96667 1.60708 33025 ft 456 kts 245°
2026-04-27 13:49 48.93990 1.51950 33023 ft 456 kts 245°
2026-04-27 13:49 48.91310 1.43214 33028 ft 456 kts 245°
2026-04-27 13:50 48.88626 1.34474 33022 ft 456 kts 245°
2026-04-27 13:50 48.85938 1.25753 33024 ft 456 kts 245°
2026-04-27 13:51 48.83240 1.17040 33022 ft 456 kts 245°
2026-04-27 13:51 48.80536 1.08319 33022 ft 456 kts 245°
2026-04-27 13:52 48.77819 0.99630 33022 ft 456 kts 245°
2026-04-27 13:52 48.75100 0.90948 33020 ft 456 kts 245°
2026-04-27 13:53 48.70286 0.78525 33021 ft 456 kts 239°
2026-04-27 13:54 48.66959 0.70338 33019 ft 456 kts 238°
2026-04-27 13:54 48.63650 0.62210 33017 ft 456 kts 238°
2026-04-27 13:55 48.60865 0.55370 33016 ft 457 kts 238°
2026-04-27 13:55 48.56992 0.45882 33016 ft 457 kts 238°
2026-04-27 13:56 48.54192 0.39057 33018 ft 456 kts 238°
2026-04-27 13:56 48.50839 0.30930 33018 ft 456 kts 238°
2026-04-27 13:57 48.47488 0.22810 33017 ft 456 kts 238°
2026-04-27 13:57 48.44136 0.14698 33018 ft 456 kts 238°
2026-04-27 13:58 48.40777 0.06607 33015 ft 456 kts 238°
2026-04-27 13:58 48.37408 -0.01463 33011 ft 455 kts 238°
2026-04-27 13:59 48.33930 -0.09343 33010 ft 455 kts 234°
2026-04-27 13:59 48.30121 -0.16945 33008 ft 455 kts 232°
2026-04-27 14:00 48.26243 -0.24465 33007 ft 455 kts 233°
2026-04-27 14:00 48.22391 -0.32021 33002 ft 456 kts 233°
2026-04-27 14:01 48.18538 -0.39571 33004 ft 456 kts 233°
2026-04-27 14:01 48.14685 -0.47090 33010 ft 456 kts 233°
2026-04-27 14:02 48.10816 -0.54620 33012 ft 456 kts 233°
2026-04-27 14:02 48.06953 -0.62138 33012 ft 456 kts 233°
2026-04-27 14:03 48.03083 -0.69641 33015 ft 456 kts 232°
2026-04-27 14:03 47.99203 -0.77131 33017 ft 456 kts 232°
2026-04-27 14:04 47.95322 -0.84599 33018 ft 456 kts 232°
2026-04-27 14:04 47.91429 -0.92068 33019 ft 456 kts 232°
2026-04-27 14:05 47.87536 -0.99533 33020 ft 456 kts 232°
2026-04-27 14:05 47.83641 -1.06978 33020 ft 456 kts 232°
2026-04-27 14:06 47.79741 -1.14407 33020 ft 456 kts 232°
2026-04-27 14:06 47.75832 -1.21825 33020 ft 456 kts 232°
2026-04-27 14:07 47.71921 -1.29237 33021 ft 456 kts 232°
2026-04-27 14:07 47.68002 -1.36645 33021 ft 456 kts 232°
2026-04-27 14:08 47.64080 -1.44024 33020 ft 455 kts 232°
2026-04-27 14:08 47.60150 -1.51392 33020 ft 455 kts 231°
2026-04-27 14:09 47.56072 -1.58487 33019 ft 455 kts 228°
2026-04-27 14:09 47.51787 -1.65380 33018 ft 455 kts 227°
2026-04-27 14:10 47.47490 -1.72264 33017 ft 455 kts 228°
2026-04-27 14:10 47.43238 -1.79203 33017 ft 455 kts 228°
2026-04-27 14:11 47.39003 -1.86152 33016 ft 455 kts 228°
2026-04-27 14:11 47.34595 -1.92839 33013 ft 455 kts 219°
2026-04-27 14:12 47.29283 -1.97930 33015 ft 456 kts 211°
2026-04-27 14:12 47.23857 -2.02761 33016 ft 456 kts 211°
2026-04-27 14:13 47.18430 -2.07593 33017 ft 456 kts 212°
2026-04-27 14:13 47.13004 -2.12434 33017 ft 456 kts 212°
2026-04-27 14:14 47.07578 -2.17262 33017 ft 456 kts 211°
2026-04-27 14:14 47.02150 -2.22071 33015 ft 456 kts 211°
2026-04-27 14:15 46.96718 -2.26869 33017 ft 456 kts 211°
2026-04-27 14:15 46.91289 -2.31646 33017 ft 456 kts 211°
2026-04-27 14:16 46.86283 -2.37264 33012 ft 454 kts 227°
2026-04-27 14:16 46.82689 -2.44732 33010 ft 453 kts 240°
2026-04-27 14:17 46.79551 -2.52711 33008 ft 454 kts 240°
2026-04-27 14:17 46.76388 -2.60676 33009 ft 454 kts 240°
2026-04-27 14:18 46.73220 -2.68647 33011 ft 454 kts 240°
2026-04-27 14:18 46.70049 -2.76613 33015 ft 455 kts 240°
2026-04-27 14:19 46.66870 -2.84570 33017 ft 455 kts 240°
2026-04-27 14:19 46.63682 -2.92528 33020 ft 455 kts 240°
2026-04-27 14:20 46.60496 -3.00467 33022 ft 455 kts 240°
2026-04-27 14:20 46.57250 -3.08362 33020 ft 455 kts 235°
2026-04-27 14:21 46.53054 -3.15239 33022 ft 455 kts 226°
2026-04-27 14:21 46.48664 -3.21846 33021 ft 455 kts 226°
2026-04-27 14:22 46.44271 -3.28455 33020 ft 455 kts 226°
2026-04-27 14:22 46.39873 -3.35059 33020 ft 455 kts 226°
2026-04-27 14:23 46.35499 -3.41604 33021 ft 455 kts 226°
2026-04-27 14:23 46.31086 -3.48176 33021 ft 455 kts 226°
2026-04-27 14:24 46.26668 -3.54744 33022 ft 455 kts 226°
2026-04-27 14:24 46.22257 -3.61305 33023 ft 455 kts 226°
2026-04-27 14:25 46.17833 -3.67862 33024 ft 456 kts 226°
2026-04-27 14:25 46.13405 -3.74391 33025 ft 456 kts 226°
2026-04-27 14:26 46.08973 -3.80923 33026 ft 456 kts 226°
2026-04-27 14:26 46.04539 -3.87448 33026 ft 456 kts 226°
2026-04-27 14:27 46.00099 -3.93953 33022 ft 455 kts 226°
2026-04-27 14:27 45.95655 -4.00445 33024 ft 455 kts 226°
2026-04-27 14:28 45.91212 -4.06927 33024 ft 455 kts 226°
2026-04-27 14:28 45.86762 -4.13398 33025 ft 455 kts 226°
2026-04-27 14:29 45.82311 -4.19862 33022 ft 455 kts 226°
2026-04-27 14:29 45.77873 -4.26326 33022 ft 455 kts 226°
2026-04-27 14:30 45.73450 -4.32729 33020 ft 455 kts 225°
2026-04-27 14:30 45.68991 -4.39146 33018 ft 455 kts 225°
2026-04-27 14:31 45.64527 -4.45551 33017 ft 455 kts 225°
2026-04-27 14:31 45.60060 -4.51959 33016 ft 455 kts 225°
2026-04-27 14:32 45.55595 -4.58356 33016 ft 455 kts 225°
2026-04-27 14:32 45.51124 -4.64737 33015 ft 455 kts 225°
2026-04-27 14:33 45.46649 -4.71106 33016 ft 455 kts 225°
2026-04-27 14:33 45.42175 -4.77476 33015 ft 455 kts 225°
2026-04-27 14:34 45.37697 -4.83832 33014 ft 455 kts 225°
2026-04-27 14:34 45.33211 -4.90176 33014 ft 455 kts 225°
2026-04-27 14:35 45.28727 -4.96502 33013 ft 455 kts 225°
2026-04-27 14:35 45.24235 -5.02821 33012 ft 455 kts 225°
2026-04-27 14:36 45.19744 -5.09132 33012 ft 455 kts 225°
2026-04-27 14:36 45.15252 -5.15436 33012 ft 455 kts 225°
2026-04-27 14:37 45.10746 -5.21727 33012 ft 455 kts 225°
2026-04-27 14:37 45.06235 -5.27997 33013 ft 455 kts 225°
2026-04-27 14:38 45.01728 -5.34267 33013 ft 455 kts 225°
2026-04-27 14:38 44.97225 -5.40538 33014 ft 455 kts 225°
2026-04-27 14:39 44.92711 -5.46799 33015 ft 455 kts 225°
2026-04-27 14:39 44.88185 -5.53052 33016 ft 455 kts 225°
2026-04-27 14:40 44.83663 -5.59288 33017 ft 455 kts 225°
2026-04-27 14:40 44.79163 -5.65467 33017 ft 455 kts 224°
2026-04-27 14:41 44.74633 -5.71678 33017 ft 455 kts 225°
2026-04-27 14:41 44.70099 -5.77887 33016 ft 455 kts 224°
2026-04-27 14:42 44.65506 -5.84005 33012 ft 455 kts 219°
2026-04-27 14:42 44.60432 -5.89312 33014 ft 455 kts 217°
2026-04-27 14:43 44.55346 -5.94591 33013 ft 455 kts 217°
2026-04-27 14:43 44.50258 -5.99872 33012 ft 455 kts 217°
2026-04-27 14:44 44.45174 -6.05142 33014 ft 455 kts 217°
2026-04-27 14:44 44.40902 -6.09553 33016 ft 455 kts 217°
2026-04-27 14:45 44.35805 -6.14819 33017 ft 455 kts 217°
2026-04-27 14:45 44.30707 -6.20066 33017 ft 455 kts 217°
2026-04-27 14:46 44.25602 -6.25299 33017 ft 455 kts 217°
2026-04-27 14:46 44.20528 -6.30482 33016 ft 455 kts 217°
2026-04-27 14:47 44.15423 -6.35693 33014 ft 455 kts 217°
2026-04-27 14:47 44.10314 -6.40899 33015 ft 455 kts 217°
2026-04-27 14:48 44.05209 -6.46093 33015 ft 455 kts 217°
2026-04-27 14:48 43.97534 -6.53872 33016 ft 455 kts 216°
2026-04-27 14:49 43.92409 -6.59047 33018 ft 455 kts 216°
2026-04-27 14:49 43.87291 -6.64219 33019 ft 455 kts 216°
2026-04-27 14:50 43.82169 -6.69385 33020 ft 455 kts 216°
2026-04-27 14:50 43.77040 -6.74541 33020 ft 455 kts 216°
2026-04-27 14:51 43.71907 -6.79672 33020 ft 455 kts 216°
2026-04-27 14:51 43.66776 -6.84800 33017 ft 455 kts 216°
2026-04-27 14:52 43.61650 -6.89924 33018 ft 455 kts 216°
2026-04-27 14:52 43.56521 -6.95040 33016 ft 455 kts 216°
2026-04-27 14:53 43.51390 -7.00139 33013 ft 455 kts 216°
2026-04-27 14:53 43.46249 -7.05228 33009 ft 455 kts 216°
2026-04-27 14:54 43.41104 -7.10318 33004 ft 455 kts 216°
2026-04-27 14:54 43.35962 -7.15403 32996 ft 456 kts 216°
2026-04-27 14:55 43.30806 -7.20486 33002 ft 456 kts 216°
2026-04-27 14:55 43.25639 -7.25557 32998 ft 457 kts 216°
2026-04-27 14:56 43.20465 -7.30642 32998 ft 458 kts 216°
2026-04-27 14:56 43.15277 -7.35727 33006 ft 458 kts 216°
2026-04-27 14:57 43.10130 -7.40759 33007 ft 458 kts 216°
2026-04-27 14:57 43.04939 -7.45825 33007 ft 458 kts 216°
2026-04-27 14:58 42.99739 -7.50883 33010 ft 458 kts 216°
2026-04-27 14:58 42.94544 -7.55927 33013 ft 458 kts 216°
2026-04-27 14:59 42.89347 -7.60967 33013 ft 458 kts 216°
2026-04-27 14:59 42.84149 -7.65989 33015 ft 458 kts 216°
2026-04-27 15:00 42.78944 -7.71004 33015 ft 458 kts 216°
2026-04-27 15:00 42.73738 -7.76009 33012 ft 458 kts 216°
2026-04-27 15:01 42.68530 -7.81016 33013 ft 458 kts 216°
2026-04-27 15:01 42.63316 -7.86028 33010 ft 459 kts 216°
2026-04-27 15:02 42.58095 -7.91021 33007 ft 459 kts 216°
2026-04-27 15:02 42.52868 -7.96012 33010 ft 460 kts 216°
2026-04-27 15:03 42.47643 -8.00992 33017 ft 459 kts 216°
2026-04-27 15:03 42.42416 -8.05964 33023 ft 459 kts 215°
2026-04-27 15:04 42.37183 -8.10927 33024 ft 458 kts 215°
2026-04-27 15:04 42.31965 -8.15859 33031 ft 458 kts 215°
2026-04-27 15:05 42.26750 -8.20786 33027 ft 457 kts 215°
2026-04-27 15:05 42.21527 -8.25707 33016 ft 458 kts 215°
2026-04-27 15:06 42.16310 -8.30614 33018 ft 458 kts 215°
2026-04-27 15:06 42.11084 -8.35520 33015 ft 457 kts 215°
2026-04-27 15:07 42.05871 -8.40409 33021 ft 457 kts 215°
2026-04-27 15:07 42.00693 -8.45254 33013 ft 457 kts 215°
2026-04-27 15:08 41.95480 -8.50129 33008 ft 457 kts 215°
2026-04-27 15:08 41.90248 -8.55005 33006 ft 458 kts 215°
2026-04-27 15:09 41.85012 -8.59862 33008 ft 458 kts 215°
2026-04-27 15:09 41.79703 -8.64570 33019 ft 458 kts 213°
2026-04-27 15:10 41.74331 -8.69128 33025 ft 457 kts 212°
2026-04-27 15:10 41.68954 -8.73678 33027 ft 456 kts 213°
2026-04-27 15:11 41.63612 -8.78252 33026 ft 456 kts 213°
2026-04-27 15:11 41.58282 -8.82825 33027 ft 456 kts 213°
2026-04-27 15:12 41.52942 -8.87384 33021 ft 455 kts 213°
2026-04-27 15:12 41.47607 -8.91927 33024 ft 455 kts 213°
2026-04-27 15:13 41.42271 -8.96469 33021 ft 455 kts 213°
2026-04-27 15:13 41.36935 -9.01004 33019 ft 455 kts 213°
2026-04-27 15:14 41.31598 -9.05525 33018 ft 455 kts 213°
2026-04-27 15:14 41.26264 -9.10038 33017 ft 455 kts 213°
2026-04-27 15:15 41.20925 -9.14549 33014 ft 455 kts 213°
2026-04-27 15:15 41.15587 -9.19047 33015 ft 455 kts 213°
2026-04-27 15:16 41.10247 -9.23539 33014 ft 454 kts 213°
2026-04-27 15:16 41.04942 -9.27994 33012 ft 454 kts 213°
2026-04-27 15:17 40.99592 -9.32467 33013 ft 454 kts 213°
2026-04-27 15:17 40.93913 -9.36076 33012 ft 455 kts 199°
2026-04-27 15:18 40.87919 -9.38774 33012 ft 455 kts 199°
2026-04-27 15:18 40.81921 -9.41472 33009 ft 455 kts 199°
2026-04-27 15:19 40.75923 -9.44168 33011 ft 455 kts 199°
2026-04-27 15:19 40.69925 -9.46860 33014 ft 455 kts 199°
2026-04-27 15:20 40.63930 -9.49559 33013 ft 455 kts 199°
2026-04-27 15:20 40.57933 -9.52249 33012 ft 455 kts 199°
2026-04-27 15:21 40.51929 -9.54926 33013 ft 455 kts 199°
2026-04-27 15:21 40.45931 -9.57593 33015 ft 455 kts 199°
2026-04-27 15:22 40.39928 -9.60266 33015 ft 455 kts 199°
2026-04-27 15:22 40.33927 -9.62935 33015 ft 455 kts 199°
2026-04-27 15:23 40.27922 -9.65592 33015 ft 455 kts 199°
2026-04-27 15:23 40.21923 -9.68245 33013 ft 455 kts 199°
2026-04-27 15:24 40.15922 -9.70902 33012 ft 455 kts 199°
2026-04-27 15:24 40.09914 -9.73549 33015 ft 456 kts 199°
2026-04-27 15:25 40.03904 -9.76187 33018 ft 456 kts 199°
2026-04-27 15:25 39.97898 -9.78824 33019 ft 456 kts 199°
2026-04-27 15:26 39.91887 -9.81458 33020 ft 456 kts 199°
2026-04-27 15:26 39.85873 -9.84090 33018 ft 456 kts 199°
2026-04-27 15:27 39.79867 -9.86716 33021 ft 456 kts 199°
2026-04-27 15:27 39.73894 -9.89321 33020 ft 455 kts 199°
2026-04-27 15:28 39.67881 -9.91930 33020 ft 456 kts 199°
2026-04-27 15:28 39.61868 -9.94535 33019 ft 456 kts 199°
2026-04-27 15:29 39.55858 -9.97146 33021 ft 456 kts 199°
2026-04-27 15:29 39.49838 -9.99747 33021 ft 456 kts 199°
2026-04-27 15:30 39.43825 -10.02333 33022 ft 456 kts 199°
2026-04-27 15:30 39.37805 -10.04929 33022 ft 456 kts 199°
2026-04-27 15:31 39.31794 -10.07522 33020 ft 456 kts 199°
2026-04-27 15:31 39.25779 -10.10117 33021 ft 456 kts 199°
2026-04-27 15:32 39.20783 -10.12261 33018 ft 455 kts 199°
2026-04-27 15:32 39.14769 -10.14837 33018 ft 455 kts 199°
2026-04-27 15:33 39.08753 -10.17406 33016 ft 455 kts 199°
2026-04-27 15:33 39.02740 -10.19962 33015 ft 455 kts 199°
2026-04-27 15:34 38.96727 -10.22522 33017 ft 455 kts 199°
2026-04-27 15:34 38.90712 -10.25077 33015 ft 455 kts 199°
2026-04-27 15:35 38.84700 -10.27625 33014 ft 455 kts 199°
2026-04-27 15:35 38.78686 -10.30180 33012 ft 455 kts 199°
2026-04-27 15:36 38.72675 -10.32722 33016 ft 455 kts 199°
2026-04-27 15:36 38.66651 -10.35260 33018 ft 456 kts 199°
2026-04-27 15:37 38.60628 -10.37803 33020 ft 456 kts 199°
2026-04-27 15:37 38.54645 -10.40321 33020 ft 456 kts 199°
2026-04-27 15:38 38.48624 -10.42843 33019 ft 455 kts 199°
2026-04-27 15:38 38.42604 -10.45361 33017 ft 455 kts 199°
2026-04-27 15:39 38.36587 -10.47876 33016 ft 455 kts 199°
2026-04-27 15:39 38.30575 -10.50387 33013 ft 455 kts 199°
2026-04-27 15:40 38.24557 -10.52899 33013 ft 455 kts 198°
2026-04-27 15:40 38.18539 -10.55405 33011 ft 455 kts 198°
2026-04-27 15:41 38.12522 -10.57900 33012 ft 455 kts 198°
2026-04-27 15:41 38.06497 -10.60403 33016 ft 455 kts 198°
2026-04-27 15:42 38.00472 -10.62900 33018 ft 455 kts 198°
2026-04-27 15:42 37.94451 -10.65387 33016 ft 455 kts 198°
2026-04-27 15:43 37.88425 -10.67874 33015 ft 455 kts 198°
2026-04-27 15:43 37.82406 -10.70350 33015 ft 455 kts 198°
2026-04-27 15:44 37.76379 -10.72824 33015 ft 455 kts 198°
2026-04-27 15:44 37.70362 -10.75301 33014 ft 455 kts 198°
2026-04-27 15:45 37.64342 -10.77773 33015 ft 455 kts 198°
2026-04-27 15:45 37.58310 -10.80245 33016 ft 455 kts 198°
2026-04-27 15:46 37.52286 -10.82710 33017 ft 455 kts 198°
2026-04-27 15:46 37.46261 -10.85163 33016 ft 455 kts 198°
2026-04-27 15:47 37.40228 -10.87611 33017 ft 455 kts 198°
2026-04-27 15:47 37.34237 -10.90032 33015 ft 455 kts 198°
2026-04-27 15:48 37.28204 -10.92482 33018 ft 455 kts 198°
2026-04-27 15:49 37.19161 -10.96156 33018 ft 456 kts 198°
2026-04-27 15:49 37.13128 -10.98588 33019 ft 455 kts 198°
2026-04-27 15:50 37.07096 -11.01022 33018 ft 455 kts 198°
2026-04-27 15:50 37.01067 -11.03440 33015 ft 455 kts 198°
2026-04-27 15:51 36.95042 -11.05853 33013 ft 455 kts 198°
2026-04-27 15:51 36.89012 -11.08279 33010 ft 455 kts 198°
2026-04-27 15:52 36.82995 -11.10693 33009 ft 455 kts 198°
2026-04-27 15:52 36.76970 -11.13107 33009 ft 455 kts 198°
2026-04-27 15:53 36.70940 -11.15513 33010 ft 455 kts 198°
2026-04-27 15:53 36.64907 -11.17913 33011 ft 455 kts 198°
2026-04-27 15:54 36.58872 -11.20309 33014 ft 456 kts 198°
2026-04-27 15:54 36.52870 -11.22702 33017 ft 456 kts 198°
2026-04-27 15:55 36.46830 -11.25101 33020 ft 456 kts 198°
2026-04-27 15:55 36.40795 -11.27483 33018 ft 455 kts 198°
2026-04-27 15:56 36.34760 -11.29873 33016 ft 455 kts 198°
2026-04-27 15:56 36.28725 -11.32251 33015 ft 455 kts 198°
2026-04-27 15:57 36.22695 -11.34623 33011 ft 455 kts 198°
2026-04-27 15:57 36.16670 -11.36994 33010 ft 455 kts 198°
2026-04-27 15:58 36.10633 -11.39375 33009 ft 455 kts 198°
2026-04-27 15:58 36.04611 -11.41739 33009 ft 455 kts 198°
2026-04-27 15:59 35.98590 -11.44141 33008 ft 455 kts 202°
2026-04-27 15:59 35.93111 -11.47965 33010 ft 453 kts 216°
2026-04-27 16:00 35.87970 -11.52485 33010 ft 454 kts 216°
2026-04-27 16:00 35.82824 -11.57008 33012 ft 454 kts 216°
2026-04-27 16:01 35.77713 -11.61487 33014 ft 454 kts 216°
2026-04-27 16:01 35.72568 -11.65984 33013 ft 454 kts 216°
2026-04-27 16:02 35.67413 -11.70482 33013 ft 454 kts 216°
2026-04-27 16:02 35.62264 -11.74969 33014 ft 454 kts 216°
2026-04-27 16:03 35.57108 -11.79451 33013 ft 454 kts 216°
2026-04-27 16:03 35.51961 -11.83929 33012 ft 454 kts 216°
2026-04-27 16:04 35.46814 -11.88401 33011 ft 454 kts 216°
2026-04-27 16:04 35.41660 -11.92873 33012 ft 454 kts 216°
2026-04-27 16:05 35.36501 -11.97337 33013 ft 454 kts 216°
2026-04-27 16:05 35.31343 -12.01788 33013 ft 454 kts 216°
2026-04-27 16:06 35.26177 -12.06236 33013 ft 454 kts 216°
2026-04-27 16:06 35.21021 -12.10680 33012 ft 454 kts 216°
2026-04-27 16:07 35.15865 -12.15128 33011 ft 454 kts 216°
2026-04-27 16:07 35.10699 -12.19561 33011 ft 454 kts 215°
2026-04-27 16:08 35.05527 -12.23980 33012 ft 454 kts 215°
2026-04-27 16:08 35.00393 -12.28374 33013 ft 454 kts 215°
2026-04-27 16:09 34.95220 -12.32793 33016 ft 454 kts 215°
2026-04-27 16:09 34.87457 -12.39417 33020 ft 454 kts 215°
2026-04-27 16:10 34.77088 -12.48232 33023 ft 454 kts 215°
2026-04-27 16:11 34.69311 -12.54829 33023 ft 454 kts 215°
2026-04-27 16:12 34.61529 -12.61403 33023 ft 454 kts 215°
2026-04-27 16:13 34.53753 -12.67971 33021 ft 454 kts 215°
2026-04-27 16:13 34.45975 -12.74520 33020 ft 454 kts 215°
2026-04-27 16:14 34.35580 -12.83234 33023 ft 454 kts 215°
2026-04-27 16:15 34.25219 -12.91911 33021 ft 454 kts 215°
2026-04-27 16:16 34.14868 -13.00651 33023 ft 454 kts 215°
2026-04-27 16:17 34.04507 -13.09368 33016 ft 453 kts 215°
2026-04-27 16:18 33.94157 -13.18054 33015 ft 453 kts 215°
2026-04-27 16:19 33.88974 -13.22378 33014 ft 453 kts 215°
2026-04-27 16:20 33.78609 -13.31025 33014 ft 453 kts 215°
2026-04-27 16:21 33.70827 -13.37508 33014 ft 454 kts 215°
2026-04-27 16:22 33.60445 -13.46131 33017 ft 454 kts 215°
2026-04-27 16:22 33.53532 -13.51860 33018 ft 454 kts 215°
2026-04-27 16:23 33.45737 -13.58304 33020 ft 454 kts 215°
2026-04-27 16:24 33.40534 -13.62595 33020 ft 454 kts 215°
2026-04-27 16:25 33.30128 -13.71162 33022 ft 454 kts 215°
2026-04-27 16:26 33.19707 -13.79708 33023 ft 454 kts 215°
2026-04-27 16:27 33.09313 -13.88199 33020 ft 454 kts 214°
2026-04-27 16:28 32.96237 -13.98780 33023 ft 454 kts 214°
2026-04-27 16:29 32.83167 -14.09344 33026 ft 454 kts 214°
2026-04-27 16:30 32.72693 -14.17760 33027 ft 454 kts 214°
2026-04-27 16:31 32.59604 -14.28261 33023 ft 454 kts 214°
2026-04-27 16:32 32.51751 -14.34550 33025 ft 454 kts 214°
2026-04-27 16:33 32.43891 -14.40810 33023 ft 454 kts 214°
2026-04-27 16:33 32.38657 -14.44985 33024 ft 454 kts 214°
2026-04-27 16:34 32.33416 -14.49154 33023 ft 454 kts 214°
2026-04-27 16:34 32.28171 -14.53311 33021 ft 454 kts 214°
2026-04-27 16:35 32.22962 -14.57441 33020 ft 454 kts 214°
2026-04-27 16:36 32.15062 -14.63697 33019 ft 454 kts 214°
2026-04-27 16:36 32.09852 -14.67818 33018 ft 454 kts 214°
2026-04-27 16:37 32.04612 -14.71961 33020 ft 454 kts 214°
2026-04-27 16:37 31.99360 -14.76099 33019 ft 454 kts 214°
2026-04-27 16:38 31.94115 -14.80226 33017 ft 453 kts 214°
2026-04-27 16:38 31.88875 -14.84354 33015 ft 453 kts 214°
2026-04-27 16:39 31.83627 -14.88475 33015 ft 453 kts 214°
2026-04-27 16:39 31.78381 -14.92585 33013 ft 453 kts 214°
2026-04-27 16:40 31.73132 -14.96695 33012 ft 453 kts 214°
2026-04-27 16:40 31.67881 -15.00793 33011 ft 453 kts 214°
2026-04-27 16:41 31.62631 -15.04885 33012 ft 453 kts 214°
2026-04-27 16:41 31.57367 -15.08984 33013 ft 453 kts 214°
2026-04-27 16:42 31.52117 -15.13068 33013 ft 454 kts 214°
2026-04-27 16:42 31.46855 -15.17167 33011 ft 454 kts 214°
2026-04-27 16:43 31.41597 -15.21253 33015 ft 454 kts 214°
2026-04-27 16:43 31.36337 -15.25313 33015 ft 453 kts 214°
2026-04-27 16:44 31.31070 -15.29399 33015 ft 454 kts 214°
2026-04-27 16:44 31.25679 -15.33222 33015 ft 454 kts 209°
2026-04-27 16:45 31.20092 -15.36685 33016 ft 454 kts 208°
2026-04-27 16:45 31.14539 -15.40079 33016 ft 454 kts 208°
2026-04-27 16:46 31.08987 -15.43582 33016 ft 454 kts 209°
2026-04-27 16:46 31.03458 -15.47137 33017 ft 454 kts 209°
2026-04-27 16:47 30.97923 -15.50680 33015 ft 454 kts 209°
2026-04-27 16:47 30.92375 -15.54199 33017 ft 454 kts 209°
2026-04-27 16:48 30.86831 -15.57698 33017 ft 454 kts 209°
2026-04-27 16:48 30.81275 -15.61202 33017 ft 454 kts 209°
2026-04-27 16:49 30.72956 -15.66456 33017 ft 454 kts 209°
2026-04-27 16:49 30.67404 -15.69953 33017 ft 454 kts 209°
2026-04-27 16:50 30.61853 -15.73447 33017 ft 454 kts 209°
2026-04-27 16:50 30.56300 -15.76939 33016 ft 454 kts 209°
2026-04-27 16:51 30.50749 -15.80421 33017 ft 454 kts 209°
2026-04-27 16:51 30.45195 -15.83907 33017 ft 454 kts 209°
2026-04-27 16:52 30.39645 -15.87382 33017 ft 454 kts 208°
2026-04-27 16:52 30.34092 -15.90851 33016 ft 454 kts 208°
2026-04-27 16:53 30.28537 -15.94329 33016 ft 454 kts 209°
2026-04-27 16:53 30.23020 -15.97775 33016 ft 454 kts 208°
2026-04-27 16:54 30.17464 -16.01230 33016 ft 454 kts 208°
2026-04-27 16:54 30.11908 -16.04687 33016 ft 454 kts 208°
2026-04-27 16:55 30.06346 -16.08146 33016 ft 454 kts 208°
2026-04-27 16:55 30.00789 -16.11594 33016 ft 454 kts 208°
2026-04-27 16:56 29.95224 -16.15034 33016 ft 454 kts 208°
2026-04-27 16:56 29.89664 -16.18470 33016 ft 454 kts 208°
2026-04-27 16:57 29.84102 -16.21908 33016 ft 454 kts 208°
2026-04-27 16:57 29.78544 -16.25333 33016 ft 454 kts 208°
2026-04-27 16:58 29.72975 -16.28763 33016 ft 454 kts 208°
2026-04-27 16:58 29.67412 -16.32183 33014 ft 453 kts 208°
2026-04-27 16:59 29.61848 -16.35598 33015 ft 453 kts 208°
2026-04-27 16:59 29.56608 -16.39651 33015 ft 452 kts 220°
2026-04-27 17:00 29.49630 -16.46259 33014 ft 453 kts 220°
2026-04-27 17:01 29.44792 -16.50816 33001 ft 441 kts 220°
2026-04-27 17:01 29.42462 -16.53011 33005 ft 425 kts 220°
2026-04-27 17:01 29.40218 -16.55123 33007 ft 410 kts 220°
2026-04-27 17:01 29.38046 -16.57167 33007 ft 396 kts 220°
2026-04-27 17:02 29.35951 -16.59137 33007 ft 383 kts 220°
2026-04-27 17:02 29.33921 -16.61046 33007 ft 372 kts 220°
2026-04-27 17:02 29.31940 -16.62910 33008 ft 367 kts 220°
2026-04-27 17:03 29.28002 -16.66598 33009 ft 365 kts 220°
2026-04-27 17:03 29.24073 -16.70276 33009 ft 365 kts 220°
2026-04-27 17:04 29.20148 -16.73949 33009 ft 365 kts 220°
2026-04-27 17:04 29.16222 -16.77629 33009 ft 365 kts 220°
2026-04-27 17:05 29.12299 -16.81297 33009 ft 365 kts 219°
2026-04-27 17:05 29.08364 -16.84965 33009 ft 365 kts 219°
2026-04-27 17:06 29.04435 -16.88630 33010 ft 365 kts 220°
2026-04-27 17:06 29.00502 -16.92292 33009 ft 365 kts 219°
2026-04-27 17:07 28.96600 -16.95922 33009 ft 365 kts 219°
2026-04-27 17:07 28.92665 -16.99583 33009 ft 365 kts 219°
2026-04-27 17:08 28.88733 -17.03237 33009 ft 365 kts 219°
2026-04-27 17:08 28.84798 -17.06889 33009 ft 365 kts 219°
2026-04-27 17:09 28.80862 -17.10537 33009 ft 365 kts 219°
2026-04-27 17:09 28.76928 -17.14182 33009 ft 365 kts 219°
2026-04-27 17:10 28.72988 -17.17820 33009 ft 365 kts 219°
2026-04-27 17:10 28.69050 -17.21462 33009 ft 365 kts 219°
2026-04-27 17:11 28.65115 -17.25102 32929 ft 363 kts 219°
2026-04-27 17:11 28.61214 -17.28710 32271 ft 358 kts 219°
2026-04-27 17:11 28.59284 -17.30487 31934 ft 356 kts 219°
2026-04-27 17:12 28.55457 -17.34004 31272 ft 351 kts 219°
2026-04-27 17:12 28.54206 -17.35153 31051 ft 349 kts 218°
2026-04-27 17:12 28.52181 -17.36651 30701 ft 347 kts 207°
2026-04-27 17:13 28.49945 -17.37657 30357 ft 345 kts 195°
2026-04-27 17:13 28.47597 -17.38142 30009 ft 343 kts 184°
2026-04-27 17:13 28.45218 -17.38096 29650 ft 341 kts 173°
2026-04-27 17:13 28.42907 -17.37530 29308 ft 339 kts 162°
2026-04-27 17:14 28.40748 -17.36480 28966 ft 338 kts 150°
2026-04-27 17:14 28.38812 -17.34992 28604 ft 336 kts 140°
2026-04-27 17:14 28.37163 -17.33121 28266 ft 334 kts 129°
2026-04-27 17:14 28.35863 -17.30957 27929 ft 332 kts 120°
2026-04-27 17:15 28.34699 -17.28695 27572 ft 330 kts 121°
2026-04-27 17:15 28.33539 -17.26455 27253 ft 328 kts 121°
2026-04-27 17:15 28.32384 -17.24235 26921 ft 326 kts 121°
2026-04-27 17:15 28.31230 -17.22023 26585 ft 324 kts 121°
2026-04-27 17:16 28.30088 -17.19837 26279 ft 321 kts 121°
2026-04-27 17:16 28.28951 -17.17660 25952 ft 319 kts 121°
2026-04-27 17:16 28.27823 -17.15498 25618 ft 318 kts 121°
2026-04-27 17:16 28.26706 -17.13353 25321 ft 315 kts 121°
2026-04-27 17:17 28.25560 -17.11242 25006 ft 313 kts 123°
2026-04-27 17:17 28.24346 -17.09197 24687 ft 311 kts 125°
2026-04-27 17:17 28.23106 -17.07196 24397 ft 309 kts 126°
2026-04-27 17:18 28.20631 -17.03254 23785 ft 305 kts 126°
2026-04-27 17:18 28.19411 -17.01291 23490 ft 303 kts 125°
2026-04-27 17:18 28.18203 -16.99337 23161 ft 303 kts 127°
2026-04-27 17:18 28.16755 -16.97590 22653 ft 307 kts 142°
2026-04-27 17:19 28.14942 -16.96286 22152 ft 311 kts 156°
2026-04-27 17:19 28.12925 -16.95371 21656 ft 315 kts 159°
2026-04-27 17:19 28.10866 -16.94463 21150 ft 320 kts 159°
2026-04-27 17:19 28.08776 -16.93536 20644 ft 324 kts 159°
2026-04-27 17:20 28.06668 -16.92596 20045 ft 330 kts 159°
2026-04-27 17:20 28.04486 -16.91735 19273 ft 332 kts 171°
2026-04-27 17:20 28.02222 -16.91864 18522 ft 327 kts 200°
2026-04-27 17:20 28.00316 -16.93202 17765 ft 323 kts 229°
2026-04-27 17:21 27.99153 -16.95350 17021 ft 320 kts 246°
2026-04-27 17:21 27.98275 -16.97658 16266 ft 320 kts 248°
2026-04-27 17:21 27.97461 -16.99986 15652 ft 315 kts 249°
2026-04-27 17:21 27.96669 -17.02278 15060 ft 311 kts 249°
2026-04-27 17:22 27.95874 -17.04532 14450 ft 306 kts 248°
2026-04-27 17:22 27.95081 -17.06725 14124 ft 293 kts 248°
2026-04-27 17:22 27.94310 -17.08812 14010 ft 283 kts 247°
2026-04-27 17:22 27.93551 -17.10836 13740 ft 280 kts 247°
2026-04-27 17:23 27.92772 -17.12898 13153 ft 289 kts 247°
2026-04-27 17:23 27.91971 -17.15012 12575 ft 296 kts 247°
2026-04-27 17:23 27.91162 -17.17147 11983 ft 293 kts 247°
2026-04-27 17:23 27.90365 -17.19251 11416 ft 290 kts 247°
2026-04-27 17:24 27.89575 -17.21331 10833 ft 286 kts 247°
2026-04-27 17:24 27.88795 -17.23385 10259 ft 283 kts 247°
2026-04-27 17:24 27.88023 -17.25416 9684 ft 280 kts 247°
2026-04-27 17:24 27.87258 -17.27429 9099 ft 277 kts 247°
2026-04-27 17:25 27.86257 -17.29289 8526 ft 282 kts 227°
2026-04-27 17:25 27.84669 -17.30569 7967 ft 290 kts 203°
2026-04-27 17:25 27.82649 -17.30988 7378 ft 298 kts 177°
2026-04-27 17:25 27.80652 -17.30355 6791 ft 304 kts 150°
2026-04-27 17:26 27.79103 -17.28741 6431 ft 302 kts 123°
2026-04-27 17:26 27.78346 -17.26597 6298 ft 291 kts 98°
2026-04-27 17:26 27.78447 -17.24373 6169 ft 281 kts 73°
2026-04-27 17:26 27.79233 -17.22405 6044 ft 270 kts 62°
2026-04-27 17:27 27.80096 -17.20555 5915 ft 262 kts 62°
2026-04-27 17:27 27.80932 -17.18766 5788 ft 253 kts 62°
2026-04-27 17:27 27.81729 -17.17059 5655 ft 245 kts 62°
2026-04-27 17:27 27.82517 -17.15370 5397 ft 242 kts 62°
2026-04-27 17:28 27.83299 -17.13692 5112 ft 240 kts 62°
2026-04-27 17:28 27.84061 -17.12015 4823 ft 239 kts 64°
2026-04-27 17:28 27.85384 -17.08580 4206 ft 237 kts 67°
2026-04-27 17:29 27.86015 -17.06862 3897 ft 236 kts 67°
2026-04-27 17:29 27.86646 -17.05146 3581 ft 235 kts 67°
2026-04-27 17:29 27.87279 -17.03435 3290 ft 235 kts 67°
2026-04-27 17:29 27.87910 -17.01733 3010 ft 233 kts 67°
2026-04-27 17:30 27.88539 -17.00049 2713 ft 232 kts 66°
2026-04-27 17:30 27.89797 -16.96699 2151 ft 231 kts 66°
2026-04-27 17:30 27.90420 -16.95041 1974 ft 228 kts 66°
2026-04-27 17:31 27.91043 -16.93380 1933 ft 230 kts 66°
2026-04-27 17:31 27.91668 -16.91712 1934 ft 231 kts 66°
2026-04-27 17:31 27.92295 -16.90042 1935 ft 231 kts 66°
2026-04-27 17:31 27.92919 -16.88378 1935 ft 231 kts 66°
2026-04-27 17:32 27.93546 -16.86706 1934 ft 231 kts 66°
2026-04-27 17:32 27.94865 -16.83402 1935 ft 231 kts 64°
2026-04-27 17:32 27.95538 -16.81807 1929 ft 217 kts 59°
2026-04-27 17:33 27.96280 -16.80357 1935 ft 208 kts 63°
2026-04-27 17:33 27.96862 -16.78917 1929 ft 195 kts 67°
2026-04-27 17:33 27.97352 -16.77557 1975 ft 180 kts 68°
2026-04-27 17:33 27.97802 -16.76279 1937 ft 173 kts 68°
2026-04-27 17:34 27.98240 -16.75031 1947 ft 169 kts 68°
2026-04-27 17:34 27.98672 -16.73799 1936 ft 168 kts 68°
2026-04-27 17:34 27.99094 -16.72596 1917 ft 162 kts 68°
2026-04-27 17:34 27.99500 -16.71416 1899 ft 160 kts 69°
2026-04-27 17:35 27.99873 -16.70239 1944 ft 158 kts 69°
2026-04-27 17:35 28.00305 -16.69089 1997 ft 159 kts 65°
2026-04-27 17:35 28.00736 -16.67941 1978 ft 159 kts 67°
2026-04-27 17:35 28.01142 -16.66772 1808 ft 159 kts 68°
2026-04-27 17:36 28.01545 -16.65604 1562 ft 159 kts 69°
2026-04-27 17:36 28.01944 -16.64447 1284 ft 157 kts 69°
2026-04-27 17:36 28.02325 -16.63291 1091 ft 157 kts 69°
2026-04-27 17:36 28.02718 -16.62146 920 ft 157 kts 68°
2026-04-27 17:37 28.03130 -16.61020 677 ft 156 kts 67°
2026-04-27 17:37 28.03528 -16.59867 452 ft 155 kts 68°
2026-04-27 17:37 28.03930 -16.58740 273 ft 155 kts 68°
2026-04-27 17:37 28.04320 -16.57617 210 ft 145 kts 69°
2026-04-27 17:38 28.04591 -16.56841 211 ft 65 kts 69°
2026-04-27 17:38 28.04745 -16.56521 212 ft 40 kts 45°
2026-04-27 17:38 28.04888 -16.56375 214 ft 11 kts 19°
2026-04-27 17:38 28.04925 -16.56432 214 ft 13 kts 252°
2026-04-27 17:39 28.04888 -16.56537 216 ft 16 kts 248°
2026-04-27 17:39 28.04842 -16.56665 213 ft 19 kts 248°
2026-04-27 17:39 28.04792 -16.56812 216 ft 21 kts 249°
2026-04-27 17:39 28.04735 -16.56980 214 ft 24 kts 249°
2026-04-27 17:40 28.04709 -16.57147 217 ft 20 kts 308°
2026-04-27 17:40 28.04787 -16.57254 208 ft 18 kts 262°
2026-04-27 17:40 28.04746 -16.57371 212 ft 15 kts 248°
2026-04-27 17:40 28.04702 -16.57493 211 ft 18 kts 250°
2026-04-27 17:41 28.04663 -16.57609 212 ft 13 kts 248°
2026-04-27 17:41 28.04634 -16.57689 208 ft 9 kts 248°
2026-04-27 17:41 28.04621 -16.57725 211 ft 6 kts 248°
2026-04-27 17:41 28.04631 -16.57770 210 ft 8 kts 326°
2026-04-27 17:42 28.04640 -16.57775 205 ft 0 kts 332°
2026-04-27 17:42 28.04641 -16.57776 205 ft 0 kts 332°
2026-04-27 17:42 28.04646 -16.57779 205 ft 2 kts 334°
2026-04-27 17:43 28.04665 -16.57786 208 ft 4 kts 339°
2026-04-27 17:43 28.04679 -16.57792 205 ft 0 kts 339°